This demonstration page uses our WeatherBlox Daily Observations layout. Learn more.

41.55636, -103.73856

Hourly Observations for April 10, 2020

Temp ( °F °C ) Dew Point ( °F °C ) Humidity (%) Winds ( mph kmh ) Pressure ( in mb ) Visibility ( mi km ) Precip ( " mm )
12:58 am 00:58 Clear 50 10 16 -9.1 25 25 ENE 7 11 30.13 1020 10 16.0934 0 0
1:58 am 01:58 Clear 42 5.8 16 -8.8 35 35 ESE 10 17 30.14 1021 10 16.0934 0 0
2:58 am 02:58 Clear 40 4.6 16 -8.8 38 38 ESE 10 17 30.13 1020 10 16.0934 0 0
3:58 am 03:58 Clear 37 2.6 18 -7.8 47 47 SE 13 20 30.13 1020 10 16.0934 0 0
4:58 am 04:58 Clear 38 3.1 16 -8.9 41 41 SSE 21 33 30.11 1020 10 16.0934 0 0
5:58 am 05:58 Clear 35 1.9 13 -10.4 40 40 SSE 20 31 30.1 1019 10 16.0934 0 0
6:58 am 06:58 Clear 33 0.8 12 -11 41 41 S 7 11 30.09 1019 10 16.0934 0 0
7:58 am 07:58 Clear 34 1 9 -12.6 36 36 S 13 20 30.04 1017 10 16.0934 0 0
8:58 am 08:58 Clear 34 1.2 8 -13.2 34 34 S 29 46 29.96 1015 10 16.0934 0 0
9:58 am 09:58 Clear 33 0.8 10 -12.1 38 38 S 32 52 29.92 1013 10 16.0934 0 0
10:58 am 10:58 Clear 33 0.5 14 -10.2 45 45 SSW 28 44 29.91 1013 10 16.0934 0 0
11:58 am 11:58 Clear 34 1 19 -7.3 54 54 SSW 23 37 29.92 1013 10 16.0934 0 0
12:58 pm 12:58 Sunny 33 0.7 22 -5.4 64 64 WSW 12 19 29.94 1014 10 16.0934 0 0
1:58 pm 13:58 Sunny 41 5.1 27 -2.7 57 57 SW 13 20 29.93 1014 10 16.0934 0 0
2:58 pm 14:58 Sunny 52 10.9 27 -2.6 39 39 WNW 8 13 29.89 1012 10 16.0934 0 0
3:58 pm 15:58 Sunny 56 13.1 29 -1.8 36 36 NW 12 19 29.88 1012 10 16.0934 0 0
4:58 pm 16:58 Sunny 63 17.2 29 -1.6 28 28 NW 14 22 29.84 1011 10 16.0934 0 0
5:58 pm 17:58 Sunny 66 19 30 -1.2 26 26 NNW 17 28 29.81 1010 10 16.0934 0 0
6:58 pm 18:58 Sunny 67 19.6 27 -3 22 22 N 14 22 29.78 1009 10 16.0934 0 0
7:58 pm 19:58 Sunny 70 21 26 -3.1 20 20 N 10 17 29.74 1007 10 16.0934 0 0
8:58 pm 20:58 Sunny 71 21.5 24 -4.6 17 17 NW 9 15 29.7 1006 10 16.0934 0 0
9:58 pm 21:58 Sunny 70 21.3 23 -4.9 17 17 NNW 7 11 29.69 1006 10 16.0934 0 0
10:58 pm 22:58 Sunny 70 21.3 24 -4.7 17 17 NNW 9 15 29.67 1005 10 16.0934 0 0
11:58 pm 23:58 Partly Cloudy 69 20.6 25 -3.7 19 19 N 9 15 29.65 1004 10 16.0934 0 0

Powered by AerisWeather